When you browse on this site, cookies collect data to enhance your experience and personalize the content and advertising you see.
Visit our Privacy Policy to learn more. By continuing to use the site, you agree to this use of cookies and data.
  • In Portugal
  • List of Countries
  • For 7 days
  • Water Temperature
  • Satellite Maps
  • Weather Map
  • Weather Widgets
  • user-avatar
    Login

    Hourly Weather Sedziszowice

    Today, 20 January, Sunday

    Time Temperature Precipitation Wind Pressure Humidity
    00:00 -3°C° 0 mm 1 mps 747 mmHg 80%
    01:00 -3°C° 0 mm 1 mps 747 mmHg 78%
    02:00 -3°C° 0 mm 1 mps 746 mmHg 79%
    03:00 -3°C° 0 mm 1 mps 746 mmHg 79%
    04:00 -3°C° 0 mm 1 mps 746 mmHg 79%
    05:00 -4°C° 0 mm 1 mps 746 mmHg 80%
    06:00 -4°C° 0 mm 1 mps 745 mmHg 80%
    07:00 -4°C° 0 mm 1 mps 745 mmHg 81%
    08:00 -3°C° 0 mm 1 mps 745 mmHg 79%
    09:00 -3°C° 0 mm 1 mps 745 mmHg 76%
    10:00 -2°C° 0 mm 1 mps 745 mmHg 74%
    11:00 -2°C° 0 mm 1 mps 745 mmHg 72%
    12:00 -1°C° 0 mm 1 mps 745 mmHg 69%
    13:00 -1°C° 0 mm 1 mps 745 mmHg 67%
    14:00 -1°C° 0 mm 1 mps 745 mmHg 69%
    15:00 -2°C° 0 mm 1 mps 745 mmHg 72%
    16:00 -2°C° 0 mm 1 mps 745 mmHg 75%
    17:00 -2°C° 0 mm 1 mps 745 mmHg 76%
    18:00 -2°C° 0 mm 1 mps 745 mmHg 78%
    19:00 -4°C° 0 mm 0 mps 746 mmHg 79%
    20:00 -3°C° 0 mm 1 mps 746 mmHg 79%
    21:00 -3°C° 0 mm 1 mps 746 mmHg 79%
    22:00 -3°C° 0 mm 1 mps 747 mmHg 79%
    23:00 -3°C° 0 mm 1 mps 747 mmHg 79%

    Tomorrow, 21 January, Monday

    Time Temperature Precipitation Wind Pressure Humidity
    00:00 -3°C° 0 mm 1 mps 747 mmHg 79%
    01:00 -4°C° 0 mm 1 mps 748 mmHg 79%
    02:00 -4°C° 0 mm 1 mps 748 mmHg 79%
    03:00 -4°C° 0 mm 1 mps 748 mmHg 78%
    04:00 -6°C° 0 mm 2 mps 748 mmHg 78%
    05:00 -6°C° 0 mm 2 mps 748 mmHg 78%
    06:00 -6°C° 0 mm 2 mps 749 mmHg 78%
    07:00 -6°C° 0 mm 2 mps 749 mmHg 77%
    08:00 -6°C° 0 mm 2 mps 749 mmHg 74%
    09:00 -5°C° 0 mm 2 mps 749 mmHg 71%
    10:00 -4°C° 0 mm 2 mps 749 mmHg 68%
    11:00 -4°C° 0 mm 2 mps 749 mmHg 66%
    12:00 -1°C° 0 mm 1 mps 749 mmHg 64%
    13:00 0°C° 0 mm 1 mps 749 mmHg 61%
    14:00 -1°C° 0 mm 1 mps 749 mmHg 64%
    15:00 -2°C° 0 mm 0 mps 748 mmHg 66%
    16:00 -3°C° 0 mm 0 mps 748 mmHg 69%
    17:00 -3°C° 0 mm 0 mps 748 mmHg 70%
    18:00 -2°C° 0 mm 1 mps 748 mmHg 71%
    19:00 -2°C° 0 mm 1 mps 748 mmHg 72%
    20:00 -3°C° 0 mm 1 mps 748 mmHg 73%
    21:00 -3°C° 0 mm 1 mps 748 mmHg 74%
    22:00 -3°C° 0 mm 1 mps 748 mmHg 74%
    23:00 -3°C° 0 mm 1 mps 748 mmHg 75%

    Day after tomorrow, 22 January, Tuesday

    Time Temperature Precipitation Wind Pressure Humidity
    00:00 -4°C° 0 mm 1 mps 747 mmHg 75%
    01:00 -4°C° 0 mm 1 mps 747 mmHg 75%
    02:00 -4°C° 0 mm 1 mps 747 mmHg 75%
    03:00 -4°C° 0 mm 1 mps 746 mmHg 74%
    04:00 -4°C° 0 mm 1 mps 746 mmHg 73%
    05:00 -4°C° 0 mm 1 mps 746 mmHg 72%
    06:00 -4°C° 0 mm 1 mps 745 mmHg 71%
    07:00 -6°C° 0 mm 1 mps 745 mmHg 70%
    08:00 -4°C° 0 mm 1 mps 745 mmHg 67%
    09:00 -3°C° 0 mm 1 mps 745 mmHg 63%
    10:00 -2°C° 0 mm 1 mps 744 mmHg 60%
    11:00 -2°C° 0 mm 1 mps 744 mmHg 58%
    12:00 -1°C° 0 mm 1 mps 743 mmHg 57%
    13:00 0°C° 0 mm 1 mps 743 mmHg 55%
    14:00 -1°C° 0 mm 1 mps 742 mmHg 60%
    15:00 -3°C° 0 mm 2 mps 742 mmHg 65%
    16:00 -4°C° 0 mm 2 mps 741 mmHg 69%
    17:00 -4°C° 0 mm 2 mps 741 mmHg 74%
    18:00 -4°C° 0 mm 2 mps 741 mmHg 78%
    19:00 -6°C° 0 mm 3 mps 741 mmHg 82%
    20:00 -6°C° 0 mm 3 mps 740 mmHg 83%
    21:00 -6°C° 0 mm 3 mps 740 mmHg 84%
    22:00 -6°C° 0 mm 3 mps 740 mmHg 84%
    23:00 -7°C° 0 mm 3 mps 739 mmHg 85%

    23 January, Wednesday

    Time Temperature Precipitation Wind Pressure Humidity
    00:00 -7°C° 0 mm 3 mps 739 mmHg 85%
    01:00 -7°C° 0 mm 3 mps 739 mmHg 86%
    02:00 -8°C° 0 mm 4 mps 738 mmHg 87%
    03:00 -8°C° 0 mm 4 mps 738 mmHg 87%
    04:00 -8°C° 0 mm 4 mps 737 mmHg 88%
    05:00 -8°C° 0 mm 4 mps 737 mmHg 88%
    06:00 -8°C° 0 mm 4 mps 737 mmHg 87%
    07:00 -8°C° 0 mm 4 mps 737 mmHg 87%
    08:00 -8°C° 0 mm 4 mps 737 mmHg 85%
    09:00 -7°C° 0 mm 4 mps 736 mmHg 83%
    10:00 -7°C° 0 mm 4 mps 736 mmHg 81%
    11:00 -5°C° 0 mm 4 mps 736 mmHg 80%
    12:00 -4°C° 0 mm 4 mps 736 mmHg 79%
    13:00 -4°C° 0 mm 5 mps 735 mmHg 78%
    14:00 -3°C° 0 mm 4 mps 735 mmHg 82%
    15:00 -3°C° 0 mm 4 mps 735 mmHg 85%
    16:00 -2°C° 0 mm 3 mps 735 mmHg 89%
    17:00 -2°C° 0 mm 3 mps 735 mmHg 91%
    18:00 -2°C° 0 mm 3 mps 736 mmHg 92%
    19:00 -2°C° 0 mm 3 mps 736 mmHg 94%
    20:00 -2°C° 0 mm 3 mps 736 mmHg 94%
    21:00 -2°C° 0 mm 3 mps 736 mmHg 95%
    22:00 -2°C° 0 mm 2 mps 736 mmHg 95%
    23:00 -2°C° 0.1 mm 2 mps 736 mmHg 96%

    24 January, Thursday

    Time Temperature Precipitation Wind Pressure Humidity
    00:00 -2°C° 0.1 mm 2 mps 736 mmHg 96%
    01:00 0°C° 0.1 mm 1 mps 736 mmHg 96%
    02:00 0°C° 0.1 mm 1 mps 736 mmHg 96%
    03:00 0°C° 0.1 mm 1 mps 736 mmHg 97%
    04:00 0°C° 0.1 mm 1 mps 736 mmHg 97%
    05:00 0°C° 0 mm 1 mps 736 mmHg 96%
    06:00 0°C° 0 mm 1 mps 736 mmHg 96%
    07:00 0°C° 0 mm 1 mps 737 mmHg 96%
    08:00 0°C° 0.1 mm 1 mps 737 mmHg 95%
    09:00 +1°C° 0.1 mm 1 mps 737 mmHg 94%
    10:00 +1°C° 0.1 mm 1 mps 737 mmHg 93%
    11:00 +1°C° 0 mm 1 mps 737 mmHg 93%
    12:00 +1°C° 0 mm 1 mps 737 mmHg 92%
    13:00 +2°C° 0 mm 1 mps 737 mmHg 92%
    14:00 +2°C° 0.1 mm 1 mps 737 mmHg 93%
    15:00 -1°C° 0.1 mm 2 mps 737 mmHg 94%
    16:00 -1°C° 0.1 mm 2 mps 738 mmHg 95%
    17:00 -1°C° 0.1 mm 2 mps 738 mmHg 95%
    18:00 -1°C° 0.1 mm 2 mps 738 mmHg 95%
    19:00 -1°C° 0.1 mm 2 mps 738 mmHg 95%
    20:00 -1°C° 0.1 mm 2 mps 739 mmHg 95%
    21:00 -1°C° 0.1 mm 2 mps 739 mmHg 95%
    22:00 -1°C° 0.1 mm 2 mps 739 mmHg 94%
    23:00 -1°C° 0.1 mm 3 mps 739 mmHg 94%

    25 January, Friday

    Time Temperature Precipitation Wind Pressure Humidity
    00:00 -1°C° 0.1 mm 3 mps 739 mmHg 93%
    01:00 -1°C° 0.1 mm 3 mps 739 mmHg 93%
    02:00 -1°C° 0.1 mm 3 mps 739 mmHg 93%
    03:00 -2°C° 0.1 mm 3 mps 739 mmHg 93%
    04:00 -2°C° 0.1 mm 3 mps 740 mmHg 93%
    05:00 -2°C° 0.1 mm 3 mps 740 mmHg 92%
    06:00 -2°C° 0.1 mm 3 mps 740 mmHg 92%
    07:00 -2°C° 0.1 mm 3 mps 740 mmHg 91%
    08:00 -3°C° 0.2 mm 4 mps 741 mmHg 91%
    09:00 -2°C° 0.2 mm 4 mps 741 mmHg 90%
    10:00 -2°C° 0.2 mm 4 mps 741 mmHg 89%
    11:00 -2°C° 0.1 mm 4 mps 742 mmHg 88%
    12:00 -2°C° 0.1 mm 4 mps 742 mmHg 88%
    13:00 -2°C° 0.1 mm 4 mps 742 mmHg 87%
    14:00 -2°C° 0.2 mm 4 mps 742 mmHg 87%
    15:00 -3°C° 0.2 mm 4 mps 743 mmHg 87%
    16:00 -3°C° 0.2 mm 4 mps 743 mmHg 87%
    17:00 -3°C° 0.1 mm 4 mps 743 mmHg 87%
    18:00 -3°C° 0.1 mm 4 mps 744 mmHg 87%
    19:00 -3°C° 0.1 mm 4 mps 744 mmHg 87%
    20:00 -3°C° 0.1 mm 4 mps 745 mmHg 86%
    21:00 -4°C° 0.1 mm 4 mps 745 mmHg 85%
    22:00 -4°C° 0.1 mm 4 mps 745 mmHg 84%
    23:00 -4°C° 0.1 mm 4 mps 745 mmHg 84%
    Show more